Location: Ferchesar
(52.6477°N, 12.4298°E)
Time: 18:51:06
(UTC+01:00)

Vanguard 1 Rocket - Pass Details

Date: 07 December 2021
Orbit: 651 x 4224 km, 34.3° (Epoch: 16 January)

Event Time Altitude Azimuth Distance (km) Brightness Sun altitude
Exits shadow 06:03:22 12° 251° (WSW) 4,851 10.6 -17.6°
Maximum altitude 06:16:00 35° 195° (SSW) 4,511 10.9 -15.7°
Drops below altitude 10° 06:36:03 10° 141° (SE) 7,354 13.0 -12.8°
Sets 06:42:56 0° 134° (SE) 8,464 13.7 -11.9°
